Weather History for KFMN - March, 2014

Change the Weather History Date:

Monday, March 24, 2014

  Actual Average (KDRO) Record (KDRO)
Temperature  
Mean Temperature 42 °F 40 °F  
Max Temperature 64 °F 55 °F - ()
Min Temperature 21 °F 25 °F - ()
Degree Days  
Heating Degree Days 22 25  
Month to date heating degree days 684  
Since 1 July heating degree days 5859  
Cooling Degree Days 0 0  
Month to date cooling degree days 0  
Year to date cooling degree days 0  
Moisture  
Dew Point 4 °F    
Average Humidity 20    
Maximum Humidity 48    
Minimum Humidity 4    
Precipitation  
Precipitation 0.00 in 0.04 in - ()
Month to date precipitation 0.97  
Year to date precipitation 3.25  
Sea Level Pressure  
Sea Level Pressure 30.14 in    
Wind  
Wind Speed 9 mph (WNW)    
Max Wind Speed 25 mph    
Max Gust Speed 34 mph    
Visibility 10 miles    
Events      
T = Trace of Precipitation, MM = Missing Value Source: NWS Daily Summary

Daily Weather History Graph

Daily Weather History Graph

Search for Another Location

Airport or City:

Trip Planner

Search our weather history database for the weather conditions in past years. The results will help you decide how hot, cold, wet, or windy it might be!

Date:

Astronomy

Mar. 24, 2014 Rise Set
Actual Time 7:10 AM MDT 7:28 PM MDT
Civil Twilight 6:44 AM MDT 7:54 PM MDT
Nautical Twilight 6:14 AM MDT 8:24 PM MDT
Astronomical Twilight 5:43 AM MDT 8:55 PM MDT
Moon 2:34 AM MDT (3/24) 1:05 PM MDT (3/24)
Length of Visible Light 13h 09m
Length of Day
12h 17m
Last Quarter, 42% of the Moon is Illuminated
Mar 24
Last Quarter
Mar 30
New
Apr 7
First Quarter
Apr 15
Full
Apr 22
Last Quarter

Hourly Weather History & Observations

Time (MDT) Temp. Windchill Dew Point Humidity Pressure Visibility Wind Dir Wind Speed Gust Speed Precip Events Conditions
12:53 AM 32.0 °F 25.6 °F 3.9 °F 31% 30.12 in 10.0 mi NNE 6.9 mph - N/A   Clear
1:53 AM 30.0 °F 22.4 °F 3.9 °F 33% 30.12 in 10.0 mi NNE 8.1 mph - N/A   Clear
2:53 AM 28.0 °F 22.8 °F 3.9 °F 36% 30.14 in 10.0 mi NE 4.6 mph - N/A   Clear
3:53 AM 28.9 °F 25.2 °F 7.0 °F 40% 30.13 in 10.0 mi ENE 3.5 mph - N/A   Clear
4:53 AM 26.1 °F 21.9 °F 5.0 °F 41% 30.14 in 10.0 mi East 3.5 mph - N/A   Clear
5:53 AM 25.0 °F - 6.1 °F 45% 30.16 in 10.0 mi Calm Calm - N/A   Clear
6:53 AM 21.9 °F 15.7 °F 5.0 °F 48% 30.20 in 10.0 mi NE 4.6 mph - N/A   Clear
7:53 AM 28.9 °F 23.9 °F 10.9 °F 47% 30.20 in 10.0 mi East 4.6 mph - N/A   Clear
8:53 AM 34.0 °F 28.8 °F 9.0 °F 35% 30.22 in 10.0 mi ESE 5.8 mph - N/A   Clear
9:53 AM 43.0 °F 38.8 °F 10.0 °F 26% 30.18 in 10.0 mi WSW 6.9 mph - N/A   Clear
10:53 AM 51.1 °F - 7.0 °F 17% 30.19 in 10.0 mi West 15.0 mph - N/A   Clear
11:53 AM 55.9 °F - 3.0 °F 12% 30.17 in 10.0 mi West 18.4 mph - N/A   Clear
12:53 PM 59.0 °F - 1.9 °F 10% 30.15 in 10.0 mi West 17.3 mph - N/A   Clear
1:53 PM 61.0 °F - 1.9 °F 9% 30.12 in 10.0 mi West 21.9 mph 34.5 mph N/A   Clear
2:53 PM 63.0 °F - 1.0 °F 8% 30.10 in 10.0 mi West 19.6 mph 27.6 mph N/A   Clear
3:53 PM 63.0 °F - -0.0 °F 8% 30.09 in 10.0 mi West 25.3 mph 33.4 mph N/A   Clear
4:53 PM 63.0 °F - -0.0 °F 8% 30.08 in 10.0 mi West 23.0 mph 29.9 mph N/A   Clear
5:53 PM 62.1 °F - -0.0 °F 8% 30.09 in 10.0 mi West 19.6 mph 29.9 mph N/A   Clear
6:53 PM 59.0 °F - -0.0 °F 9% 30.12 in 10.0 mi West 18.4 mph 26.5 mph N/A   Clear
7:53 PM 53.1 °F - 1.9 °F 12% 30.12 in 10.0 mi West 10.4 mph - N/A   Clear
8:53 PM 48.0 °F - 3.0 °F 16% 30.15 in 10.0 mi West 4.6 mph - N/A   Clear
9:53 PM 45.0 °F 41.8 °F 3.0 °F 18% 30.15 in 10.0 mi West 5.8 mph - N/A   Clear
10:53 PM 44.1 °F 39.5 °F 3.0 °F 18% 30.13 in 10.0 mi WNW 8.1 mph - N/A   Clear
11:53 PM 46.9 °F - 3.0 °F 16% 30.11 in 10.0 mi West 4.6 mph - N/A   Clear